Total_Precipitation_Accumulation
1.19 1.11 1.12 1.10 1.05 1.01 1.03 1.15 1.41 1.29 0.86 0.65 0.68 0.72 0.76 0.80 0.77 0.70 0.67 0.77 0.82 0.91 1.03 1.10 1.20 1.39 1.76 2.33 2.96 3.88 4.52 4.18 3.39 2.88 2.83 3.17 3.64 4.12
1.27 1.26 1.13 1.05 1.09 1.12 1.14 1.12 1.17 1.31 1.08 0.63 0.57 0.64 0.74 0.88 0.96 0.81 0.75 0.88 0.89 0.90 0.92 0.97 1.07 1.26 1.51 1.83 2.27 2.88 3.80 4.28 4.06 3.56 3.20 3.32 3.59 4.00
1.25 1.29 1.20 1.08 1.16 1.22 1.26 1.25 1.19 1.22 1.24 0.78 0.61 0.66 0.86 0.98 1.02 0.94 0.90 0.87 0.86 0.90 0.92 0.97 1.02 1.15 1.37 1.59 1.82 2.21 2.89 3.63 4.08 4.11 3.82 3.59 3.61 3.71
1.25 1.27 1.27 1.20 1.19 1.22 1.30 1.29 1.20 1.13 1.21 1.04 0.81 0.82 0.92 1.04 1.06 1.02 1.00 0.94 0.83 0.88 0.90 0.99 1.05 1.13 1.28 1.45 1.61 1.85 2.25 2.78 3.36 3.83 3.97 3.68 3.53 3.57
1.20 1.24 1.26 1.26 1.19 1.16 1.25 1.30 1.24 1.19 1.21 1.23 1.01 0.90 0.97 1.11 1.23 1.21 1.14 1.10 0.97 0.94 0.94 1.01 1.09 1.12 1.19 1.34 1.53 1.68 1.86 2.04 2.45 3.09 3.70 3.76 3.54 3.52
1.09 1.11 1.19 1.32 1.32 1.31 1.34 1.32 1.35 1.41 1.38 1.36 1.22 1.09 1.11 1.20 1.35 1.41 1.38 1.29 1.20 1.08 1.09 1.13 1.18 1.20 1.18 1.19 1.25 1.37 1.55 1.86 2.19 2.66 3.14 3.52 3.53 3.47
1.07 1.00 1.08 1.34 1.54 1.70 1.74 1.60 1.61 1.76 1.72 1.66 1.53 1.37 1.25 1.31 1.42 1.39 1.47 1.39 1.35 1.26 1.19 1.19 1.14 1.11 1.10 1.11 1.15 1.22 1.33 1.55 1.85 2.18 2.60 2.97 3.23 3.38
1.14 1.01 1.03 1.29 1.46 1.61 1.76 1.72 1.73 1.90 2.01 1.96 1.80 1.55 1.25 1.14 1.22 1.42 1.63 1.80 1.74 1.45 1.30 1.31 1.13 1.13 1.09 1.02 1.14 1.22 1.28 1.42 1.63 1.87 2.17 2.49 2.80 3.13
1.09 1.05 1.07 1.16 1.30 1.33 1.47 1.53 1.52 1.67 1.90 2.00 1.95 1.54 1.32 1.23 1.45 1.69 1.73 1.84 1.72 1.61 1.59 1.66 1.35 1.22 1.11 1.12 1.24 1.22 1.27 1.34 1.44 1.60 1.83 2.09 2.37 2.71
1.14 1.06 1.00 1.04 1.18 1.35 1.44 1.43 1.34 1.38 1.59 1.77 1.96 1.76 1.54 1.57 1.88 2.16 2.24 2.23 1.96 1.81 1.75 1.96 1.62 1.37 1.26 1.22 1.29 1.21 1.19 1.22 1.28 1.37 1.53 1.75 1.99 2.31
1.17 1.09 0.97 0.94 1.17 1.36 1.34 1.32 1.25 1.27 1.38 1.57 1.73 1.81 1.82 1.95 2.26 2.67 2.84 2.82 2.53 2.17 1.93 1.95 1.85 1.68 1.64 1.61 1.53 1.40 1.22 1.14 1.16 1.22 1.30 1.46 1.70 2.07
1.17 1.13 1.19 1.16 1.28 1.31 1.21 1.30 1.40 1.28 1.19 1.23 1.29 1.35 1.39 1.53 1.93 2.37 2.73 2.87 2.65 2.54 2.18 1.98 1.95 1.97 2.34 2.14 1.77 1.47 1.28 1.22 1.16 1.15 1.18 1.22 1.39 1.55
1.21 1.20 1.15 1.30 1.33 1.30 1.27 1.25 1.44 1.36 1.24 1.30 1.28 1.21 1.20 1.29 1.46 1.80 2.32 2.73 2.76 2.52 2.19 2.24 2.36 2.01 2.18 2.25 1.98 1.60 1.27 1.16 1.09 1.13 1.13 1.14 1.19 1.24
1.21 1.12 1.10 1.29 1.33 1.36 1.33 1.37 1.43 1.39 1.29 1.31 1.25 1.16 1.16 1.25 1.38 1.57 1.85 2.18 2.34 2.26 2.06 2.23 2.64 2.28 2.02 1.87 1.84 1.79 1.45 1.24 1.09 1.06 1.04 1.21 1.27 1.29
1.36 1.38 1.32 1.41 1.44 1.33 1.30 1.35 1.30 1.22 1.27 1.32 1.22 1.07 1.03 1.14 1.25 1.35 1.46 1.67 1.88 1.93 1.95 2.04 2.31 2.34 2.19 1.94 1.60 1.50 1.50 1.50 1.25 1.10 1.06 1.07 1.08 1.10
1.52 1.49 1.47 1.48 1.44 1.37 1.31 1.19 1.09 1.11 1.21 1.22 1.15 1.04 0.97 1.02 1.15 1.25 1.36 1.46 1.72 1.85 1.90 2.03 2.28 2.52 2.46 1.87 1.58 1.39 1.23 1.51 1.46 1.21 1.10 1.07 1.01 0.91
1.59 1.63 1.56 1.51 1.49 1.36 1.18 1.05 1.00 1.06 1.12 1.06 1.07 1.08 1.05 1.04 1.06 1.12 1.30 1.41 1.60 1.70 1.86 2.12 2.37 2.49 2.54 2.27 1.93 1.49 1.19 1.19 1.28 1.22 1.15 1.18 1.19 1.05
1.62 1.61 1.44 1.27 1.21 1.14 1.06 0.99 0.96 0.95 0.94 0.97 1.03 1.05 1.04 1.06 1.07 1.07 1.19 1.36 1.50 1.56 1.66 1.88 2.23 2.53 2.69 2.69 2.23 1.64 1.30 1.23 1.33 1.31 1.18 1.20 1.32 1.26
1.41 1.28 1.17 1.10 1.05 1.00 0.94 0.91 0.90 0.85 0.85 0.92 0.98 0.99 0.98 1.03 1.07 1.10 1.15 1.27 1.39 1.50 1.62 1.73 1.99 2.34 2.51 2.63 2.63 2.01 1.54 1.37 1.43 1.58 1.42 1.21 1.21 1.28
1.11 1.10 1.08 1.05 1.05 1.06 1.00 0.95 0.90 0.88 0.89 0.89 0.90 0.92 0.96 1.04 1.07 1.05 1.08 1.20 1.30 1.41 1.54 1.65 1.88 2.15 2.32 2.25 2.33 2.31 2.05 1.65 1.48 1.65 1.63 1.42 1.33 1.43
1.02 1.03 1.02 1.04 1.07 1.08 1.01 0.96 0.94 0.90 0.86 0.86 0.84 0.83 0.86 0.96 0.99 0.96 1.02 1.14 1.23 1.32 1.43 1.53 1.71 1.91 2.07 2.09 2.02 2.01 2.18 2.16 1.72 1.60 1.63 1.64 1.59 1.58
0.98 1.01 1.01 1.03 1.07 1.08 1.04 0.98 0.97 0.92 0.86 0.84 0.80 0.79 0.80 0.87 0.93 0.94 1.00 1.07 1.11 1.18 1.29 1.41 1.55 1.75 1.97 2.13 2.05 1.89 2.01 2.21 2.18 1.89 1.70 1.62 1.66 1.71
1.04 1.05 1.06 1.04 1.03 1.03 1.03 0.97 0.94 0.91 0.87 0.84 0.81 0.80 0.82 0.86 0.87 0.92 0.96 0.98 1.02 1.07 1.16 1.35 1.53 1.69 1.90 2.03 2.06 1.91 1.85 1.96 2.01 1.98 2.06 1.81 1.42 1.25